EN

Hourly Weather Laganow

Today, 28 July, Wednesday

Time Temperature Precipitation Wind Pressure Humidity
00:00 +22°C° 0 mm 1 mps 742 mmHg 80%
01:00 +21°C° 0 mm 1 mps 742 mmHg 82%
02:00 +21°C° 0 mm 1 mps 741 mmHg 84%
03:00 +21°C° 0 mm 1 mps 741 mmHg 85%
04:00 +20°C° 0 mm 1 mps 741 mmHg 87%
05:00 +22°C° 0 mm 1 mps 741 mmHg 82%
06:00 +23°C° 0 mm 1 mps 741 mmHg 76%
07:00 +25°C° 0 mm 1 mps 741 mmHg 70%
08:00 +27°C° 0 mm 1 mps 741 mmHg 64%
09:00 +28°C° 0 mm 2 mps 741 mmHg 58%
10:00 +30°C° 0 mm 2 mps 741 mmHg 51%
11:00 +31°C° 0 mm 1 mps 740 mmHg 49%
12:00 +31°C° 0 mm 1 mps 740 mmHg 47%
13:00 +32°C° 0 mm 2 mps 740 mmHg 45%
14:00 +32°C° 0 mm 1 mps 740 mmHg 44%
15:00 +32°C° 0 mm 1 mps 740 mmHg 43%
16:00 +32°C° 0 mm 1 mps 739 mmHg 43%
17:00 +31°C° 0 mm 1 mps 739 mmHg 49%
18:00 +29°C° 0 mm 2 mps 739 mmHg 55%
19:00 +27°C° 0 mm 2 mps 738 mmHg 62%
20:00 +25°C° 0.7 mm 4 mps 739 mmHg 72%
21:00 +22°C° 0.7 mm 5 mps 739 mmHg 82%
22:00 +20°C° 0.7 mm 7 mps 740 mmHg 92%
23:00 +20°C° 0.4 mm 5 mps 740 mmHg 93%

Tomorrow, 29 July, Thursday

Time Temperature Precipitation Wind Pressure Humidity
00:00 +20°C° 0.4 mm 4 mps 741 mmHg 94%
01:00 +19°C° 0.4 mm 2 mps 741 mmHg 96%
02:00 +19°C° 0 mm 2 mps 741 mmHg 95%
03:00 +19°C° 0 mm 3 mps 741 mmHg 95%
04:00 +19°C° 0 mm 3 mps 741 mmHg 95%
05:00 +19°C° 0 mm 3 mps 741 mmHg 90%
06:00 +20°C° 0 mm 3 mps 741 mmHg 85%
07:00 +21°C° 0 mm 4 mps 742 mmHg 80%
08:00 +22°C° 0 mm 4 mps 742 mmHg 72%
09:00 +24°C° 0 mm 3 mps 742 mmHg 65%
10:00 +26°C° 0 mm 3 mps 742 mmHg 57%
11:00 +27°C° 0 mm 3 mps 742 mmHg 54%
12:00 +28°C° 0 mm 4 mps 742 mmHg 50%
13:00 +29°C° 0 mm 4 mps 741 mmHg 46%
14:00 +29°C° 0 mm 4 mps 741 mmHg 46%
15:00 +29°C° 0 mm 4 mps 741 mmHg 46%
16:00 +29°C° 0 mm 4 mps 741 mmHg 47%
17:00 +27°C° 0 mm 3 mps 741 mmHg 53%
18:00 +25°C° 0 mm 3 mps 741 mmHg 59%
19:00 +24°C° 0 mm 2 mps 741 mmHg 65%
20:00 +23°C° 0 mm 2 mps 741 mmHg 66%
21:00 +20°C° 0 mm 2 mps 741 mmHg 68%
22:00 +20°C° 0 mm 1 mps 741 mmHg 69%
23:00 +20°C° 0 mm 1 mps 741 mmHg 70%

Day after tomorrow, 30 July, Friday

Time Temperature Precipitation Wind Pressure Humidity
00:00 +19°C° 0 mm 1 mps 741 mmHg 70%
01:00 +19°C° 0 mm 1 mps 741 mmHg 71%
02:00 +19°C° 0 mm 1 mps 741 mmHg 73%
03:00 +19°C° 0 mm 1 mps 741 mmHg 74%
04:00 +18°C° 0 mm 1 mps 741 mmHg 75%
05:00 +20°C° 0 mm 1 mps 741 mmHg 72%
06:00 +21°C° 0 mm 1 mps 741 mmHg 68%
07:00 +23°C° 0 mm 1 mps 741 mmHg 65%
08:00 +25°C° 0 mm 1 mps 741 mmHg 60%
09:00 +26°C° 0 mm 2 mps 740 mmHg 54%
10:00 +28°C° 0 mm 2 mps 740 mmHg 49%
11:00 +29°C° 0 mm 2 mps 740 mmHg 48%
12:00 +30°C° 0 mm 3 mps 740 mmHg 46%
13:00 +30°C° 0 mm 3 mps 739 mmHg 45%
14:00 +31°C° 0 mm 3 mps 739 mmHg 45%
15:00 +31°C° 0 mm 3 mps 739 mmHg 45%
16:00 +31°C° 0 mm 2 mps 738 mmHg 45%
17:00 +30°C° 0 mm 2 mps 738 mmHg 51%
18:00 +28°C° 0 mm 2 mps 738 mmHg 57%
19:00 +26°C° 0 mm 2 mps 738 mmHg 63%
20:00 +25°C° 0.1 mm 1 mps 738 mmHg 66%
21:00 +24°C° 0.1 mm 1 mps 738 mmHg 69%
22:00 +22°C° 0.1 mm 1 mps 738 mmHg 72%
23:00 +22°C° 0 mm 1 mps 738 mmHg 75%

31 July, Saturday

Time Temperature Precipitation Wind Pressure Humidity
00:00 +21°C° 0 mm 1 mps 738 mmHg 77%
01:00 +21°C° 0 mm 1 mps 738 mmHg 79%
02:00 +20°C° 0 mm 1 mps 738 mmHg 81%
03:00 +20°C° 0 mm 1 mps 738 mmHg 83%
04:00 +20°C° 0 mm 1 mps 737 mmHg 85%
05:00 +20°C° 0.1 mm 2 mps 737 mmHg 82%
06:00 +23°C° 0.1 mm 2 mps 738 mmHg 79%
07:00 +24°C° 0.1 mm 3 mps 738 mmHg 75%
08:00 +22°C° 0.4 mm 3 mps 738 mmHg 80%
09:00 +21°C° 0.4 mm 3 mps 738 mmHg 84%
10:00 +20°C° 0.4 mm 4 mps 738 mmHg 89%
11:00 +21°C° 0.4 mm 3 mps 738 mmHg 87%
12:00 +21°C° 0.4 mm 3 mps 738 mmHg 84%
13:00 +22°C° 0.4 mm 3 mps 739 mmHg 82%
14:00 +22°C° 0.3 mm 3 mps 739 mmHg 81%
15:00 +24°C° 0.3 mm 3 mps 739 mmHg 80%
16:00 +24°C° 0.3 mm 3 mps 739 mmHg 80%
17:00 +22°C° 0 mm 3 mps 738 mmHg 81%
18:00 +22°C° 0 mm 3 mps 738 mmHg 82%
19:00 +22°C° 0 mm 3 mps 738 mmHg 83%
20:00 +21°C° 0 mm 2 mps 739 mmHg 82%
21:00 +20°C° 0 mm 2 mps 739 mmHg 81%
22:00 +19°C° 0 mm 2 mps 739 mmHg 80%
23:00 +18°C° 0 mm 2 mps 739 mmHg 79%

1 August, Sunday

Time Temperature Precipitation Wind Pressure Humidity
00:00 +18°C° 0 mm 2 mps 739 mmHg 78%
01:00 +17°C° 0 mm 2 mps 739 mmHg 77%
02:00 +18°C° 0 mm 1 mps 739 mmHg 77%
03:00 +16°C° 0 mm 1 mps 739 mmHg 78%
04:00 +16°C° 0 mm 1 mps 739 mmHg 79%
05:00 +19°C° 0 mm 1 mps 739 mmHg 74%
06:00 +20°C° 0 mm 1 mps 739 mmHg 70%
07:00 +22°C° 0 mm 1 mps 739 mmHg 65%
08:00 +22°C° 0.2 mm 1 mps 739 mmHg 66%
09:00 +22°C° 0.2 mm 1 mps 739 mmHg 66%
10:00 +23°C° 0.2 mm 1 mps 739 mmHg 67%
11:00 +24°C° 0.3 mm 2 mps 738 mmHg 63%
12:00 +26°C° 0.3 mm 2 mps 738 mmHg 60%
13:00 +27°C° 0.3 mm 3 mps 737 mmHg 56%
14:00 +25°C° 2.8 mm 3 mps 736 mmHg 69%
15:00 +22°C° 2.8 mm 3 mps 736 mmHg 81%
16:00 +20°C° 2.8 mm 4 mps 735 mmHg 93%
17:00 +20°C° 0.9 mm 3 mps 735 mmHg 94%
18:00 +19°C° 0.9 mm 2 mps 736 mmHg 95%
19:00 +20°C° 0.9 mm 1 mps 736 mmHg 97%
20:00 +20°C° 1.5 mm 1 mps 736 mmHg 97%
21:00 +18°C° 1.5 mm 2 mps 736 mmHg 97%
22:00 +18°C° 1.5 mm 2 mps 736 mmHg 98%
23:00 +17°C° 1 mm 3 mps 736 mmHg 97%

2 August, Monday

Time Temperature Precipitation Wind Pressure Humidity
00:00 +16°C° 1 mm 5 mps 736 mmHg 96%
01:00 +15°C° 1 mm 7 mps 737 mmHg 95%
02:00 +15°C° 0.6 mm 6 mps 737 mmHg 94%
03:00 +15°C° 0.6 mm 5 mps 738 mmHg 94%
04:00 +14°C° 0.6 mm 5 mps 738 mmHg 93%
05:00 +15°C° 0 mm 4 mps 738 mmHg 92%
06:00 +15°C° 0 mm 4 mps 739 mmHg 91%
07:00 +17°C° 0 mm 4 mps 739 mmHg 90%
08:00 +17°C° 0.2 mm 4 mps 739 mmHg 86%
09:00 +18°C° 0.2 mm 4 mps 740 mmHg 82%
10:00 +19°C° 0.2 mm 4 mps 740 mmHg 78%
11:00 +20°C° 0.1 mm 4 mps 740 mmHg 71%
12:00 +22°C° 0.1 mm 5 mps 740 mmHg 63%
13:00 +23°C° 0.1 mm 5 mps 740 mmHg 56%
14:00 +23°C° 0 mm 5 mps 740 mmHg 57%
15:00 +23°C° 0 mm 4 mps 740 mmHg 58%
16:00 +24°C° 0 mm 3 mps 740 mmHg 58%
17:00 +21°C° 0.1 mm 3 mps 740 mmHg 64%
18:00 +20°C° 0.1 mm 2 mps 740 mmHg 71%
19:00 +19°C° 0.1 mm 2 mps 740 mmHg 77%
20:00 +18°C° 0 mm 2 mps 741 mmHg 80%
21:00 +17°C° 0 mm 2 mps 741 mmHg 82%
22:00 +16°C° 0 mm 1 mps 741 mmHg 85%
23:00 +16°C° 0 mm 2 mps 741 mmHg 86%
Show more